Charlotte, NC

3:07 PM EST on February 14, 2016 (GMT -0500)
Charlotte-Douglas International

Weather History for KCLT - July, 2014

Change the Weather History Date:

Thursday, July 10, 2014

  Actual Average Record
Temperature  
Mean Temperature 78 °F 79 °F  
Max Temperature 85 °F 89 °F 101 °F (1926)
Min Temperature 71 °F 68 °F 53 °F (1961)
Degree Days  
Heating Degree Days 0 0  
Month to date heating degree days 0 0  
Since 1 June heating degree days 0 3  
Since 1 July heating degree days 0 0  
Cooling Degree Days 13 14  
Month to date cooling degree days 139 133  
Year to date cooling degree days 740 607  
Since 1 June cooling degree days 512 444  
Growing Degree Days 28 (Base 50)    
Moisture  
Dew Point 68 °F    
Average Humidity 78    
Maximum Humidity 93    
Minimum Humidity 62    
Precipitation  
Precipitation T in 0.11 in 2.45 in (1941)
Month to date precipitation 0.29 1.06  
Year to date precipitation 25.93 21.76  
Snow  
Snow 0.00 in 0.00 in 0.00 in ()
Month to date snowfall 0.0 0.0  
Since 1 June snowfall 0.0 0.0  
Since 1 July snowfall 0.0 0.0  
Snow Depth 0.00 in    
Sea Level Pressure  
Sea Level Pressure 30.06 in    
Wind  
Wind Speed 4 mph (NNW)    
Max Wind Speed 15 mph    
Max Gust Speed 22 mph    
Visibility 10 miles    
Events      
T = Trace of Precipitation, MM = Missing Value Source: NWS Daily Summary

Daily Weather History Graph

Daily Weather History Graph

Search for Another Location

Airport or City:

Trip Planner

Search our weather history database for the weather conditions in past years. The results will help you decide how hot, cold, wet, or windy it might be!

Date:

Astronomy

Jul. 10, 2014 Rise Set
Actual Time 6:17 AM EDT 8:40 PM EDT
Civil Twilight 5:48 AM EDT 9:09 PM EDT
Nautical Twilight 5:12 AM EDT 9:45 PM EDT
Astronomical Twilight 4:32 AM EDT 10:25 PM EDT
Moon 6:54 PM EDT (7/10) 4:25 AM EDT (7/10)
Length of Visible Light 15h 21m
Length of Day
14h 23m
Waxing Gibbous, 95% of the Moon is Illuminated
Jul 10
Waxing Gibbous
Jul 12
Full
Jul 18
Last Quarter
Jul 26
New
Aug 3
First Quarter

Hourly Weather History & Observations

Time (EDT) Temp. Heat Index Dew Point Humidity Pressure Visibility Wind Dir Wind Speed Gust Speed Precip Events Conditions
12:52 AM 73.0 °F - 69.1 °F 87% 30.03 in 10.0 mi Calm Calm - 0.00 in   Overcast
1:52 AM 73.0 °F - 70.0 °F 90% 30.02 in 10.0 mi South 5.8 mph - N/A   Overcast
2:52 AM 73.0 °F - 69.1 °F 87% 30.01 in 10.0 mi South 5.8 mph - N/A   Overcast
3:52 AM 72.0 °F - 69.1 °F 91% 30.01 in 10.0 mi South 4.6 mph - N/A   Overcast
4:52 AM 72.0 °F - 69.1 °F 91% 30.01 in 8.0 mi Calm Calm - N/A   Overcast
6:52 AM 71.1 °F - 68.0 °F 90% 30.04 in 10.0 mi Calm Calm - 0.00 in   Overcast
7:52 AM 72.0 °F - 68.0 °F 87% 30.06 in 10.0 mi Calm Calm - N/A   Overcast
8:52 AM 73.4 °F - 68.0 °F 83% 30.09 in 10.0 mi Calm Calm - N/A   Mostly Cloudy
9:52 AM 73.0 °F - 69.1 °F 87% 30.09 in 10.0 mi NNW 4.6 mph - 0.00 in   Overcast
10:52 AM 75.9 °F - 68.0 °F 76% 30.09 in 10.0 mi Calm Calm - 0.00 in   Overcast
11:52 AM 77.0 °F - 66.0 °F 69% 30.10 in 10.0 mi NNW 3.5 mph - N/A   Mostly Cloudy
12:52 PM 78.1 °F - 66.9 °F 68% 30.10 in 10.0 mi WNW 4.6 mph - N/A   Overcast
1:52 PM 81.0 °F 83.3 °F 66.9 °F 62% 30.07 in 10.0 mi ESE 5.8 mph - N/A   Overcast
2:52 PM 82.0 °F 84.9 °F 68.0 °F 62% 30.05 in 10.0 mi Variable 5.8 mph - N/A   Overcast
3:52 PM 82.9 °F 85.8 °F 68.0 °F 60% 30.04 in 10.0 mi WNW 4.6 mph - N/A   Mostly Cloudy
4:52 PM 82.9 °F 85.8 °F 68.0 °F 60% 30.02 in 10.0 mi WNW 3.5 mph - N/A   Mostly Cloudy
5:52 PM 82.0 °F 85.5 °F 69.1 °F 65% 30.04 in 10.0 mi NNW 4.6 mph - N/A   Overcast
6:52 PM 79.0 °F - 66.0 °F 64% 30.04 in 10.0 mi NNE 6.9 mph - N/A   Mostly Cloudy
7:52 PM 77.0 °F - 66.0 °F 69% 30.04 in 10.0 mi NNW 4.6 mph - N/A   Mostly Cloudy
8:52 PM 73.0 °F - 66.9 °F 81% 30.06 in 10.0 mi Calm Calm - N/A   Scattered Clouds
9:52 PM 72.0 °F - 66.9 °F 84% 30.09 in 10.0 mi North 4.6 mph - N/A   Scattered Clouds
10:52 PM 71.1 °F - 66.9 °F 87% 30.11 in 10.0 mi North 5.8 mph - N/A   Scattered Clouds
11:52 PM 73.0 °F - 66.9 °F 81% 30.11 in 10.0 mi ESE 6.9 mph - N/A   Scattered Clouds